Location: Grand Moustoir
(47.8355°N, 3.3120°W)
Time: 09:33:24
(UTC+00:00)

ATLAS 3B R/B - Pass Details

Date: 20 January 2020
Orbit: 1027 x 1168 km, 63.8° (Epoch: 09 February)

Event Time Altitude Azimuth Distance (km) Brightness Sun altitude
Exits shadow 05:53:55 17° 328° (NNW) 2,387 4.2 -19.8°
Maximum altitude 05:59:10 56° 43° (NE) 1,248 3.2 -18.9°
Drops below altitude 10° 06:05:58 10° 121° (ESE) 2,934 6.1 -17.8°
Sets 06:08:44 0° 125° (SE) 3,910 6.9 -17.4°
